Weather History for Los Alamos, NM

Change the Weather History Date:

Saturday, April 20, 2013

  Actual Average Record
Temperature  
Mean Temperature 48 °F -  
Max Temperature 57 °F 58 °F 78 °F (1989)
Min Temperature 39 °F 31 °F 22 °F (1973)
Degree Days  
Heating Degree Days 17    
Moisture  
Dew Point 12 °F    
Average Humidity 23    
Maximum Humidity 33    
Minimum Humidity 13    
Precipitation  
Precipitation 0.00 in - - ()
Sea Level Pressure  
Sea Level Pressure 30.03 in    
Wind  
Wind Speed 4 mph (WNW)    
Max Wind Speed 28 mph    
Max Gust Speed 41 mph    
Visibility 10 miles    
Events      
Averages and records for this station are not official NWS values.
T = Trace of Precipitation, MM = Missing Value Source: NWS Daily Summary

Daily Weather History Graph

Daily Weather History Graph

Search for Another Location

Airport:

Trip Planner

Search our weather history database for the weather conditions in past years. The results will help you decide how hot, cold, wet, or windy it might be!

Date:

Astronomy

Apr. 20, 2013 Rise Set
Actual Time 6:25 AM MDT 7:43 PM MDT
Civil Twilight 5:58 AM MDT 8:09 PM MDT
Nautical Twilight 5:26 AM MDT 8:41 PM MDT
Astronomical Twilight 4:53 AM MDT 9:15 PM MDT
Moon 2:39 PM MDT (4/20) 3:05 AM MDT (4/20)
Length of Visible Light 14h 11m
Length of Day
13h 17m
Waxing Gibbous, 71% of the Moon is Illuminated
Apr 20
Waxing Gibbous
Apr 25
Full
May 2
Last Quarter
May 9
New
May 17
First Quarter

Hourly Weather History & Observations

Time (MDT) Temp. Windchill Dew Point Humidity Pressure Visibility Wind Dir Wind Speed Gust Speed Precip Events Conditions
12:35 AM 46.4 °F - 6.8 °F 20% 30.06 in 10.0 mi Calm Calm - N/A   Overcast
12:55 AM 45.0 °F - 6.8 °F 21% 30.06 in 10.0 mi Calm Calm - N/A   Overcast
1:15 AM 44.8 °F - 5.4 °F 20% 30.06 in 10.0 mi Calm Calm - N/A   Overcast
1:35 AM 45.0 °F - 4.8 °F 19% 30.06 in 10.0 mi Calm Calm - N/A   Overcast
1:55 AM 44.4 °F - 5.0 °F 20% 30.05 in 10.0 mi Calm Calm - N/A   Overcast
2:15 AM 44.6 °F - 5.2 °F 20% 30.04 in 10.0 mi Calm Calm - N/A   Overcast
2:35 AM 44.1 °F 42.5 °F 5.9 °F 21% 30.04 in 10.0 mi WNW 3.5 mph - N/A   Overcast
2:55 AM 44.1 °F 41.5 °F 7.5 °F 22% 30.03 in 10.0 mi SSW 4.6 mph - N/A   Overcast
3:15 AM 43.3 °F 39.9 °F 6.6 °F 22% 30.03 in 10.0 mi South 5.8 mph - N/A   Overcast
3:35 AM 43.9 °F - 7.3 °F 22% 30.03 in 10.0 mi Calm Calm - N/A   Overcast
3:55 AM 42.8 °F - 6.8 °F 23% 30.03 in 10.0 mi Calm Calm - N/A   Overcast
4:15 AM 42.8 °F - 7.7 °F 24% 30.03 in 10.0 mi Calm Calm - N/A   Mostly Cloudy
4:35 AM 42.3 °F - 7.3 °F 24% 30.03 in 10.0 mi Calm Calm - N/A   Clear
4:55 AM 41.5 °F - 7.9 °F 25% 30.03 in 10.0 mi Calm Calm - N/A   Clear
5:15 AM 40.8 °F - 7.7 °F 26% 30.02 in 10.0 mi Calm Calm - N/A   Clear
5:35 AM 41.0 °F - 7.7 °F 25% 30.02 in 10.0 mi Calm Calm - N/A   Clear
5:55 AM 41.2 °F - 7.7 °F 25% 30.02 in 10.0 mi Calm Calm - N/A   Clear
6:15 AM 39.7 °F - 8.2 °F 27% 30.03 in 10.0 mi Calm Calm - N/A   Clear
6:35 AM 40.8 °F - 8.2 °F 26% 30.03 in 10.0 mi Calm Calm - N/A   Clear
6:55 AM 41.0 °F - 8.4 °F 26% 30.03 in 10.0 mi Calm Calm - N/A   Clear
7:15 AM 40.6 °F - 9.9 °F 28% 30.03 in 10.0 mi Calm Calm - N/A   Clear
7:35 AM 42.8 °F - 11.3 °F 28% 30.04 in 10.0 mi Calm Calm - N/A   Clear
7:55 AM 43.5 °F - 13.8 °F 30% 30.04 in 10.0 mi Calm Calm - N/A   Clear
8:15 AM 44.1 °F - 14.9 °F 31% 30.04 in 10.0 mi Calm Calm - N/A   Clear
8:35 AM 45.3 °F 44.0 °F 15.1 °F 30% 30.03 in 10.0 mi East 3.5 mph - N/A   Clear
8:55 AM 46.4 °F - 14.7 °F 28% 30.04 in 10.0 mi Calm Calm - N/A   Scattered Clouds
9:15 AM 48.6 °F - 15.8 °F 27% 30.03 in 10.0 mi NE 8.1 mph - N/A   Mostly Cloudy
9:35 AM 50.0 °F - 15.6 °F 25% 30.03 in 10.0 mi East 5.8 mph - N/A   Overcast
9:55 AM 49.3 °F - 15.3 °F 26% 30.04 in 10.0 mi NNE 6.9 mph - N/A   Overcast
10:15 AM 49.3 °F - 15.1 °F 26% 30.04 in 10.0 mi SE 3.5 mph - N/A   Mostly Cloudy
10:35 AM 49.8 °F - 15.1 °F 25% 30.03 in 10.0 mi Calm Calm - N/A   Scattered Clouds
10:55 AM 50.9 °F - 14.5 °F 24% 30.02 in 10.0 mi Calm Calm - N/A   Mostly Cloudy
11:15 AM 51.6 °F - 14.7 °F 23% 30.02 in 10.0 mi NNE 9.2 mph - N/A   Overcast
11:35 AM 53.6 °F - 14.9 °F 22% 30.01 in 10.0 mi ENE 5.8 mph - N/A   Overcast
11:55 AM 52.9 °F - 14.9 °F 22% 30.01 in 10.0 mi NNE 8.1 mph - N/A   Overcast
12:15 PM 52.2 °F - 14.9 °F 23% 30.01 in 10.0 mi Calm Calm - N/A   Overcast
12:35 PM 52.9 °F - 14.7 °F 22% 30.00 in 10.0 mi NE 5.8 mph - N/A   Overcast
12:55 PM 52.7 °F - 14.5 °F 22% 29.99 in 10.0 mi Calm Calm - N/A   Overcast
1:15 PM 53.2 °F - 14.5 °F 22% 29.99 in 10.0 mi West 12.7 mph 19.6 mph N/A   Overcast
1:35 PM 54.9 °F - 13.8 °F 20% 29.98 in 10.0 mi West 8.1 mph - N/A   Mostly Cloudy
1:55 PM 54.0 °F - 15.4 °F 22% 29.99 in 10.0 mi NW 8.1 mph 27.6 mph N/A   Mostly Cloudy
2:15 PM 52.9 °F - 17.1 °F 24% 30.00 in 10.0 mi WSW 10.4 mph 41.4 mph N/A   Mostly Cloudy
2:35 PM 55.2 °F - 15.4 °F 21% 29.99 in 10.0 mi West 27.6 mph 34.5 mph N/A   Scattered Clouds
2:55 PM 56.1 °F - 12.9 °F 18% 29.98 in 10.0 mi West 11.5 mph 19.6 mph N/A   Scattered Clouds
3:15 PM 56.7 °F - 10.6 °F 16% 29.97 in 10.0 mi West 13.8 mph 40.3 mph N/A   Scattered Clouds
3:35 PM 57.0 °F - 8.4 °F 14% 29.97 in 10.0 mi WSW 19.6 mph 32.2 mph N/A   Scattered Clouds
3:55 PM 56.5 °F - 8.6 °F 15% 29.96 in 10.0 mi WNW 11.5 mph 27.6 mph N/A   Scattered Clouds
4:15 PM 56.1 °F - 9.0 °F 15% 29.96 in 10.0 mi WSW 10.4 mph 31.1 mph N/A   Scattered Clouds
4:35 PM 56.5 °F - 7.5 °F 14% 29.95 in 10.0 mi WNW 12.7 mph 20.7 mph N/A   Scattered Clouds
4:55 PM 56.8 °F - 6.8 °F 14% 29.96 in 10.0 mi West 13.8 mph 32.2 mph N/A   Clear
5:15 PM 56.7 °F - 6.4 °F 13% 29.96 in 10.0 mi NW 15.0 mph 25.3 mph N/A   Clear
5:35 PM 55.8 °F - 7.3 °F 14% 29.98 in 10.0 mi West 17.3 mph 28.8 mph N/A   Clear
5:55 PM 55.0 °F - 9.3 °F 16% 29.99 in 10.0 mi West 16.1 mph 24.2 mph N/A   Clear
6:15 PM 54.9 °F - 8.1 °F 15% 29.99 in 10.0 mi West 13.8 mph 17.3 mph N/A   Scattered Clouds
6:35 PM 54.7 °F - 7.5 °F 15% 30.00 in 10.0 mi WNW 12.7 mph 18.4 mph N/A   Scattered Clouds
6:55 PM 53.8 °F - 7.3 °F 15% 30.00 in 10.0 mi WNW 3.5 mph 20.7 mph N/A   Clear
7:15 PM 52.9 °F - 10.2 °F 18% 30.01 in 10.0 mi WNW 6.9 mph - N/A   Clear
7:35 PM 52.0 °F - 13.1 °F 21% 30.02 in 10.0 mi WNW 11.5 mph 20.7 mph N/A   Clear
7:55 PM 51.3 °F - 15.8 °F 25% 30.03 in 10.0 mi WNW 9.2 mph 21.9 mph N/A   Clear
8:15 PM 50.7 °F - 17.6 °F 27% 30.04 in 10.0 mi WNW 8.1 mph - N/A   Clear
8:35 PM 50.9 °F - 19.0 °F 28% 30.06 in 10.0 mi WNW 10.4 mph 21.9 mph N/A   Clear
8:55 PM 50.0 °F - 19.4 °F 30% 30.07 in 10.0 mi NW 8.1 mph - N/A   Clear
9:15 PM 49.6 °F - 19.9 °F 31% 30.08 in 10.0 mi West 12.7 mph 17.3 mph N/A   Clear
9:35 PM 49.1 °F - 20.1 °F 32% 30.09 in 10.0 mi NW 9.2 mph - N/A   Clear
9:55 PM 48.9 °F - 20.7 °F 33% 30.10 in 10.0 mi Calm Calm - N/A   Clear
10:15 PM 48.2 °F - 20.3 °F 33% 30.10 in 10.0 mi WNW 9.2 mph - N/A   Clear
10:35 PM 48.4 °F - 19.8 °F 32% 30.11 in 10.0 mi WNW 9.2 mph - N/A   Clear
10:55 PM 47.8 °F - 19.8 °F 33% 30.11 in 10.0 mi NNW 6.9 mph - N/A   Clear
11:15 PM 47.8 °F - 19.6 °F 33% 30.11 in 10.0 mi NW 8.1 mph - N/A   Clear
11:35 PM 48.2 °F - 19.2 °F 32% 30.12 in 10.0 mi WNW 6.9 mph 18.4 mph N/A   Clear
11:55 PM 47.5 °F - 18.9 °F 32% 30.11 in 10.0 mi NW 11.5 mph 21.9 mph N/A   Clear